Home   Weather   Laatzen   Past weeks

Flag for Germany Past Weather in Laatzen, Lower Saxony, Germany — Yesterday and Last 2 Weeks

Now
27 °F

Ice fog.


Feels Like: 21 °F
Forecast: 18 / 31 °F
Wind: 5 mph from South

Location: Hannover

Current Time: Jan 18, 2017 at 9:09:03 am

Latest Report: Jan 18, 2017 at 8:20 am


Visibility: 3 mi

Pressure: 30.72 "Hg

Humidity: 93%

Dew Point: 25 °F

Location of LaatzenLocation

Past Weather in Laatzen — Graph

°F

Laatzen Temperature Yesterday

Maximum temperature yesterday: 27 °F (at 2:50 pm)
Minimum temperature yesterday: 23 °F (at 2:20 am)
Average temperature yesterday: 25 °F

High & Low Weather Summary for the Past Weeks

 TemperatureHumidityPressure
High43 °F (Jan 4, 2:50 am)100% (Jan 6, 5:50 am)30.77 "Hg (Jan 6, 5:50 am)
Low12 °F (Jan 6, 5:20 am)51% (Jan 4, 9:50 pm)28.94 "Hg (Jan 13, 4:20 am)
Average32 °F86%30.07 "Hg
* Reported Jan 3 7:20 am — Jan 18 7:50 am, Laatzen, Weather by CustomWeather, © 2017

Note: Actual official high and low records may vary slightly from our data, if they occured in-between our weather recording intervals... More about our weather records

Advertising

Laatzen Weather History for the Previous 24 Hours

Scroll right to see more
 ConditionsComfort  
Time TempWeatherWind HumidityBarometerVisibility
7:50 am
Wed, Jan 18
27 °FIce fog.3 mph93%30.72 "Hg2 mi
7:20 am27 °FIce fog.2 mph93%30.72 "Hg2 mi
6:50 am27 °FIce fog.2 mph93%30.72 "Hg2 mi
6:20 am25 °FIce fog.2 mph100%30.72 "Hg2 mi
5:50 am25 °FIce fog.1 mph93%30.72 "Hg2 mi
5:20 am25 °FIce fog.No wind93%30.69 "Hg2 mi
4:50 am23 °FIce fog.2 mph93%30.72 "Hg2 mi
4:20 am23 °FIce fog.1 mph100%30.72 "Hg2 mi
3:50 am25 °FIce fog.1 mph100%30.72 "Hg3 mi
3:20 am27 °FIce fog.2 mph93%30.72 "Hg3 mi
2:50 am27 °FIce fog.1 mph93%30.72 "Hg3 mi
2:20 am27 °FIce fog.1 mph93%30.72 "Hg3 mi
1:50 am27 °FIce fog.1 mph93%30.72 "Hg2 mi
1:20 am27 °FIce fog.2 mph93%30.72 "Hg2 mi
12:50 am27 °FIce fog.1 mph93%30.72 "Hg2 mi
12:20 am27 °FIce fog.1 mph93%30.69 "Hg2 mi
11:50 pm
Tue, Jan 17
27 °FIce fog.1 mph93%30.72 "Hg2 mi
11:20 pm27 °FIce fog.1 mph93%30.72 "Hg2 mi
10:50 pm25 °FIce fog.2 mph100%30.72 "Hg2 mi
10:20 pm25 °FIce fog.3 mph100%30.72 "Hg2 mi
9:50 pm25 °FIce fog.2 mph100%30.72 "Hg2 mi
9:20 pm25 °FIce fog.2 mph100%30.72 "Hg2 mi
8:50 pm25 °FIce fog.2 mph100%30.69 "Hg2 mi
8:20 pm27 °FIce fog.2 mph93%30.69 "Hg2 mi
7:50 pm27 °FIce fog.2 mph93%30.69 "Hg2 mi
7:20 pm27 °FIce fog.1 mph93%30.69 "Hg2 mi
6:50 pm27 °FIce fog.1 mph93%30.69 "Hg2 mi
6:20 pm27 °FIce fog.1 mph93%30.69 "Hg2 mi
5:50 pm27 °FIce fog.3 mph93%30.66 "Hg2 mi
5:20 pm27 °FIce fog.2 mph93%30.66 "Hg2 mi
4:50 pm27 °FIce fog.2 mph93%30.66 "Hg2 mi
4:20 pm27 °FIce fog.2 mph93%30.66 "Hg2 mi
3:50 pm27 °FIce fog.2 mph93%30.66 "Hg2 mi
3:20 pm27 °FIce fog.1 mph93%30.66 "Hg2 mi
2:50 pm27 °FIce fog.2 mph93%30.66 "Hg2 mi
2:20 pm25 °FIce fog.1 mph100%30.66 "Hg2 mi
1:50 pm25 °FIce fog.2 mph100%30.66 "Hg2 mi
1:20 pm25 °FIce fog.2 mph93%30.66 "Hg2 mi
12:50 pm25 °FIce fog.3 mph93%30.66 "Hg2 mi
12:20 pm25 °FIce fog.3 mph93%30.66 "Hg2 mi
11:50 am25 °FIce fog.3 mph93%30.63 "Hg2 mi
11:20 am25 °FIce fog.3 mph93%30.63 "Hg2 mi
10:50 am23 °FIce fog.3 mph100%30.63 "Hg2 mi
10:20 am23 °FIce fog.2 mph93%30.63 "Hg2 mi
9:50 am23 °FIce fog.3 mph93%30.63 "Hg1 mi
9:20 am23 °FIce fog.3 mph93%30.60 "Hg1 mi
Weather by CustomWeather, © 2017

See weather overviewHow to use our weather pages